Location: ?ernice
(48.8383°N, 14.3803°E)
Time: 21:36:01
(UTC+00:00)

USA 267 - Pass Details

Date: 23 May 2024
Orbit: 1100 x 1107 km, 123.0° (Epoch: 21 May)

Event Time Altitude Azimuth Distance (km) Brightness Sun altitude
Rises 01:57:10 0° 70° (ENE) 3,920 7.4 -10.0°
Reaches altitude 10° 01:59:45 10° 64° (ENE) 2,962 6.8 -9.7°
Maximum altitude 02:05:51 44° 355° (N) 1,479 4.3 -9.0°
Drops below altitude 10° 02:11:58 10° 286° (WNW) 2,960 5.3 -8.3°
Sets 02:14:33 0° 281° (W) 3,918 5.8 -8.0°
